Temp
-14 -13 -13 -14 -13 -13 -13 -12 -11 -12 -12 -12 -11 -11 -11 -11 -12 -12 -12 -12 -13 -14 -15 -16 -15 -15 -15 -15 -14 -14 -14 -13
-15 -14 -14 -14 -13 -13 -14 -12 -12 -12 -11 -12 -12 -11 -11 -12 -12 -12 -12 -12 -13 -14 -15 -15 -15 -15 -15 -15 -15 -14 -14 -13
-15 -14 -14 -14 -13 -13 -13 -12 -12 -12 -11 -12 -11 -12 -12 -12 -12 -12 -12 -13 -14 -15 -15 -15 -15 -15 -14 -15 -15 -14 -14 -14
-15 -15 -15 -15 -14 -14 -13 -13 -12 -12 -12 -12 -12 -12 -12 -12 -12 -12 -13 -14 -14 -15 -15 -15 -15 -14 -14 -15 -15 -14 -14 -14
-17 -17 -16 -14 -13 -13 -14 -12 -13 -12 -12 -12 -12 -13 -12 -12 -13 -13 -13 -13 -14 -14 -14 -14 -15 -14 -14 -15 -15 -14 -14 -14
-16 -16 -16 -14 -14 -13 -13 -12 -12 -12 -12 -13 -13 -12 -12 -12 -12 -13 -13 -14 -14 -15 -15 -15 -15 -14 -14 -14 -14 -14 -13 -13
-17 -16 -16 -15 -14 -14 -13 -13 -13 -13 -12 -13 -13 -13 -13 -12 -12 -13 -13 -14 -14 -15 -15 -15 -15 -14 -14 -14 -14 -14 -14 -13
-17 -16 -16 -15 -15 -15 -14 -14 -13 -13 -12 -12 -13 -13 -13 -12 -13 -13 -14 -14 -15 -15 -15 -15 -14 -14 -14 -14 -14 -14 -14 -14
-17 -17 -17 -16 -15 -15 -14 -13 -13 -13 -13 -13 -12 -13 -13 -13 -13 -13 -14 -15 -15 -15 -15 -14 -14 -14 -14 -14 -13 -13 -14 -13
-16 -18 -18 -17 -16 -15 -14 -14 -13 -13 -13 -12 -12 -13 -13 -13 -13 -14 -15 -15 -16 -16 -15 -14 -14 -14 -14 -14 -13 -13 -13 -14
-17 -18 -17 -17 -16 -16 -15 -14 -14 -14 -14 -13 -13 -13 -13 -13 -14 -14 -15 -16 -16 -16 -15 -14 -14 -14 -14 -14 -13 -13 -13 -13
-17 -17 -18 -17 -17 -16 -15 -15 -14 -14 -14 -14 -14 -13 -13 -14 -15 -15 -16 -16 -16 -16 -15 -15 -15 -15 -14 -14 -13 -14 -14 -13
-17 -17 -16 -16 -17 -17 -15 -15 -14 -14 -14 -14 -14 -14 -14 -15 -15 -15 -15 -15 -16 -15 -15 -15 -15 -14 -14 -14 -14 -14 -13 -13
-17 -18 -17 -17 -17 -16 -16 -15 -14 -14 -14 -14 -14 -14 -14 -15 -15 -15 -15 -16 -15 -15 -15 -15 -15 -15 -14 -14 -13 -13 -13 -13
-18 -18 -17 -17 -17 -16 -15 -15 -14 -14 -14 -14 -15 -15 -15 -16 -15 -15 -16 -16 -15 -15 -15 -15 -15 -15 -14 -14 -14 -13 -13 -13
-17 -18 -17 -17 -16 -16 -15 -15 -15 -15 -15 -15 -15 -15 -15 -15 -15 -15 -16 -16 -15 -15 -15 -15 -15 -14 -14 -13 -14 -13 -13 -13
-17 -17 -16 -16 -15 -16 -15 -15 -15 -15 -15 -15 -15 -16 -16 -15 -15 -15 -16 -16 -15 -15 -15 -16 -15 -15 -15 -14 -13 -14 -13 -13
-17 -17 -17 -17 -16 -16 -16 -16 -16 -16 -16 -16 -16 -16 -16 -15 -15 -16 -16 -16 -15 -15 -15 -16 -15 -15 -15 -14 -14 -14 -14 -14
-17 -17 -16 -17 -16 -16 -16 -16 -16 -16 -16 -16 -16 -17 -16 -16 -16 -16 -16 -16 -16 -16 -15 -16 -15 -15 -15 -15 -15 -14 -14 -14
Height
5694 5699 5703 5708 5712 5715 5720 5719 5724 5730 5732 5735 5738 5742 5746 5748 5750 5752 5753 5752 5751 5750 5750 5750 5749 5748 5747 5747 5748 5747 5748 5748
5679 5685 5691 5698 5702 5706 5709 5709 5714 5718 5723 5726 5731 5736 5740 5741 5742 5744 5745 5745 5744 5743 5743 5743 5743 5742 5742 5742 5742 5741 5741 5742
5665 5673 5679 5685 5690 5693 5697 5698 5703 5709 5714 5720 5722 5724 5729 5731 5735 5736 5736 5737 5737 5735 5736 5736 5735 5735 5735 5736 5735 5735 5736 5736
5653 5658 5662 5669 5675 5681 5686 5689 5694 5699 5706 5709 5714 5717 5723 5724 5726 5727 5728 5729 5728 5728 5729 5729 5728 5728 5729 5729 5727 5727 5729 5730
5637 5641 5649 5655 5662 5667 5676 5681 5687 5691 5697 5703 5707 5710 5714 5716 5718 5718 5719 5720 5719 5721 5722 5721 5721 5722 5723 5722 5721 5721 5722 5724
5622 5631 5636 5642 5651 5661 5669 5672 5676 5682 5689 5695 5699 5701 5703 5706 5709 5710 5710 5711 5710 5713 5713 5714 5714 5715 5715 5714 5715 5715 5717 5718
5612 5620 5626 5636 5646 5653 5660 5666 5671 5675 5679 5685 5689 5693 5693 5696 5700 5700 5702 5703 5703 5704 5705 5706 5707 5708 5708 5708 5708 5708 5709 5710
5607 5617 5625 5632 5638 5644 5650 5656 5663 5668 5672 5677 5682 5683 5683 5688 5690 5692 5694 5694 5697 5697 5696 5698 5699 5700 5701 5701 5701 5702 5704 5705
5601 5610 5616 5626 5630 5636 5640 5646 5652 5658 5662 5667 5672 5673 5677 5680 5682 5685 5685 5687 5688 5688 5689 5690 5691 5692 5692 5692 5693 5695 5696 5697
5596 5603 5610 5616 5621 5625 5631 5638 5644 5648 5651 5656 5660 5665 5669 5672 5674 5675 5678 5679 5679 5681 5682 5683 5683 5684 5684 5684 5685 5686 5687 5690
5592 5599 5605 5608 5612 5617 5623 5630 5636 5642 5645 5648 5653 5658 5661 5663 5665 5668 5670 5671 5673 5674 5675 5675 5676 5676 5675 5674 5675 5676 5678 5681
5589 5595 5600 5604 5605 5609 5616 5621 5626 5633 5637 5642 5646 5651 5652 5655 5657 5659 5662 5664 5665 5667 5667 5668 5667 5666 5665 5664 5665 5666 5668 5671
5587 5590 5594 5597 5601 5604 5607 5613 5621 5626 5629 5633 5638 5641 5644 5646 5649 5653 5655 5656 5658 5660 5660 5660 5659 5657 5656 5654 5655 5656 5657 5660
5582 5586 5588 5592 5595 5598 5604 5608 5615 5620 5624 5627 5632 5634 5637 5640 5643 5645 5646 5649 5651 5653 5653 5653 5651 5649 5646 5644 5643 5645 5648 5651
5579 5582 5586 5588 5591 5594 5598 5603 5608 5613 5616 5620 5624 5627 5630 5633 5635 5636 5640 5642 5644 5646 5646 5645 5644 5640 5637 5633 5635 5637 5641 5646
5577 5579 5582 5585 5587 5589 5593 5598 5603 5607 5610 5613 5616 5620 5623 5627 5629 5631 5634 5635 5637 5638 5638 5637 5635 5631 5627 5625 5628 5631 5634 5638
5575 5577 5579 5581 5582 5585 5588 5593 5596 5600 5604 5607 5610 5614 5618 5620 5623 5624 5626 5628 5629 5629 5631 5630 5628 5625 5622 5620 5622 5625 5628 5631
5570 5572 5574 5577 5578 5580 5583 5587 5590 5594 5597 5600 5603 5607 5608 5612 5615 5618 5618 5620 5621 5622 5624 5623 5622 5621 5619 5617 5619 5621 5623 5626
5568 5569 5571 5573 5575 5577 5579 5581 5584 5587 5590 5593 5596 5598 5600 5605 5607 5609 5609 5612 5614 5615 5617 5617 5617 5616 5615 5615 5614 5617 5619 5621
Wind_Speed
58 59 61 56 51 48 48 46 42 39 38 39 41 40 39 37 33 33 35 37 37 36 29 27 29 26 26 28 27 28 29 31
55 56 60 53 50 51 49 50 45 41 37 38 35 35 38 36 33 34 36 37 38 35 28 29 27 25 26 27 28 27 26 28
47 47 55 52 50 50 50 48 45 39 35 33 36 39 39 39 33 33 36 36 36 33 30 29 25 24 26 29 28 27 23 27
46 43 45 47 54 48 44 43 41 35 33 34 37 38 38 35 33 35 36 37 37 34 32 29 25 24 27 27 25 26 25 26
44 43 44 51 50 48 51 42 36 36 33 32 32 33 38 36 36 37 37 36 38 34 32 28 26 25 24 25 25 25 26 25
49 50 49 51 48 44 38 39 39 38 34 30 30 34 40 39 35 37 37 36 38 33 33 28 29 25 24 24 25 27 26 29
49 52 52 45 41 38 39 35 33 33 32 31 28 37 40 38 36 37 35 36 36 35 33 30 29 26 25 25 25 27 28 30
45 42 33 36 34 34 37 36 37 34 33 31 31 35 42 37 38 37 33 35 34 36 35 31 29 27 28 26 27 28 30 31
40 38 37 31 33 38 37 38 36 32 35 36 36 41 40 38 38 34 33 33 35 38 34 31 30 29 30 28 29 29 30 32
30 24 29 34 35 35 33 33 28 34 38 35 37 36 37 38 36 32 31 35 37 36 34 31 28 31 31 30 32 32 31 30
22 19 30 37 37 41 36 32 31 33 31 34 36 34 35 36 32 32 34 36 35 34 31 28 31 33 32 34 35 32 33 34
21 19 25 29 32 35 37 35 33 34 34 35 35 32 35 31 32 34 35 37 39 29 28 29 31 32 35 35 38 32 31 34
25 26 29 23 28 29 28 27 33 34 33 30 31 32 31 31 32 34 36 38 29 28 27 27 29 33 32 33 29 30 36 38
28 22 26 28 25 23 29 30 33 34 31 29 30 31 30 32 35 36 32 27 28 28 25 26 27 30 30 36 33 31 34 35
18 20 22 24 26 31 31 32 32 34 33 29 28 28 30 32 32 29 22 26 27 26 25 24 27 28 31 26 25 27 35 38
15 18 19 24 29 32 31 32 34 34 32 30 28 29 29 33 27 28 28 29 28 26 26 23 26 24 24 20 30 30 25 30
16 19 19 20 26 30 34 32 33 32 34 34 33 32 31 31 29 30 30 30 30 28 27 23 24 21 22 12 27 31 28 29
14 15 16 17 22 26 28 31 32 33 33 35 35 37 35 34 34 31 36 36 33 28 28 23 21 19 19 10 16 27 26 29
13 15 16 16 18 23 28 30 31 33 34 36 38 39 35 34 36 31 40 38 34 30 29 26 22 19 18 18 13 19 22 25
Wind_Direction
244 249 252 252 256 255 254 257 250 243 235 230 234 238 241 247 254 262 268 271 276 278 274 269 275 272 266 268 269 263 257 253
247 243 245 251 252 250 247 251 246 240 234 235 233 235 244 248 251 258 265 271 275 276 265 266 275 267 265 270 271 261 260 248
250 250 245 246 247 242 241 244 242 239 232 222 229 235 240 245 250 257 264 270 275 268 259 265 269 265 268 273 268 261 264 245
243 236 228 230 237 236 234 242 238 230 219 218 224 230 241 252 255 259 265 268 269 259 258 265 262 263 269 273 267 263 266 257
222 225 223 221 228 233 227 239 231 224 221 216 224 233 245 247 249 257 263 266 265 256 257 263 260 259 269 274 269 272 265 266
218 219 218 219 225 230 223 226 222 221 226 219 221 234 245 247 249 257 261 263 260 252 256 257 255 259 268 273 269 267 255 258
215 215 218 221 226 230 234 233 232 233 233 231 224 234 243 246 250 257 258 258 255 253 255 255 254 260 265 271 265 266 261 255
217 223 221 222 216 223 225 230 233 236 240 238 235 238 244 246 251 256 257 255 251 253 257 254 251 259 263 267 266 261 250 253
217 225 222 224 228 230 228 223 224 223 230 234 234 236 241 247 254 256 248 248 248 251 254 253 255 260 266 268 266 259 262 248
218 200 214 213 221 222 224 231 231 230 230 227 233 241 248 252 255 246 241 245 245 249 251 253 260 263 268 270 260 266 253 247
212 205 216 222 225 217 219 222 221 233 229 234 240 244 250 252 250 239 241 240 248 250 251 256 261 264 269 273 266 258 252 251
209 226 228 225 229 226 217 218 224 222 240 241 242 243 247 244 235 239 236 239 245 246 254 263 266 271 268 266 266 255 252 248
231 231 227 218 228 229 224 224 221 231 235 241 236 236 236 232 235 232 236 242 242 247 256 265 274 273 269 264 257 256 255 236
240 242 222 225 236 219 228 226 226 225 226 232 233 230 230 232 231 237 233 235 242 250 260 273 278 278 270 271 254 246 239 224
230 232 229 218 227 226 223 222 225 226 226 225 228 229 229 227 234 233 231 240 244 252 262 274 275 283 273 257 220 230 216 225
225 230 238 224 227 224 222 221 221 221 223 223 225 230 231 232 239 238 237 240 245 252 260 272 271 279 279 242 217 228 230 226
222 226 231 227 225 224 226 223 222 220 221 222 222 228 235 244 244 250 236 241 243 249 256 267 270 277 292 241 217 225 229 232
249 246 242 230 227 227 228 228 225 225 224 226 226 229 234 241 247 251 241 239 241 247 254 258 265 266 283 260 237 220 235 231
257 246 244 240 232 233 231 231 231 232 232 235 235 239 241 246 253 270 242 238 242 245 251 253 257 256 261 272 259 222 221 229